Location: De Greiden
(52.9496°N, 5.9137°E)
Time: 02:11:59
(UTC+00:00)

Cosmos 1812 Rocket - Pass Details

Date: 24 January 2021
Orbit: 604 x 633 km, 82.5° (Epoch: 26 February)

Event Time Altitude Azimuth Distance (km) Brightness Sun altitude
Rises 18:12:43 0° 347° (NNW) 2,913 7.1 -18.7°
Reaches altitude 10° 18:14:59 10° 346° (NNW) 1,997 6.2 -19.0°
Maximum altitude 18:19:23 74° 262° (W) 645 3.7 -19.7°
Drops below altitude 10° 18:23:43 10° 178° (S) 1,964 6.2 -20.3°
Sets 18:25:55 0° 176° (S) 2,859 7.0 -20.6°
